This is the latest recevied weather packets stored in our database for station/object F5PHW-13. If no packets are shown the sender has not sent any weather packets the latest 10 day(s).
| Time | Temp. | Humidity | Pressure | Rain* | Wind** | Luminosity | Snow |
|---|---|---|---|---|---|---|---|
| 1777451480 | 16.11° C | 72% | 1010 hPa | 0 mm | - | - | - |
| 1777450282 | 15.56° C | 74% | 1010.1 hPa | 0 mm | - | - | - |
| 1777449081 | 14.44° C | 76% | 1010.3 hPa | 0 mm | - | - | - |
| 1777447881 | 13.89° C | 79% | 1010.3 hPa | 0 mm | - | - | - |
| 1777446682 | 12.78° C | 81% | 1010.4 hPa | 0 mm | - | - | - |
| 1777445480 | 12.22° C | 84% | 1010.1 hPa | 0 mm | - | - | - |
| 1777444281 | 11.67° C | 85% | 1010.1 hPa | 0 mm | - | - | - |
| 1777443080 | 10.56° C | 85% | 1010 hPa | 0 mm | - | - | - |
| 1777441879 | 10.56° C | 85% | 1010 hPa | 0 mm | - | - | - |
| 1777440680 | 10.56° C | 84% | 1009.7 hPa | 0.25 mm | - | - | - |
| 1777439479 | 10.56° C | 84% | 1009.4 hPa | 0.51 mm | - | - | - |
| 1777438279 | 10.56° C | 83% | 1010.3 hPa | 0.76 mm | - | - | - |
| 1777437080 | 10.56° C | 82% | 1011.1 hPa | 0.25 mm | - | - | - |
| 1777435879 | 11.11° C | 81% | 1010.8 hPa | 0 mm | - | - | - |
| 1777434679 | 11.11° C | 80% | 1011.4 hPa | 0 mm | - | - | - |
| 1777433480 | 11.11° C | 80% | 1011.4 hPa | 0 mm | - | - | - |
| 1777432280 | 11.11° C | 80% | 1011.6 hPa | 0 mm | - | - | - |
| 1777431080 | 11.11° C | 80% | 1011.4 hPa | 0 mm | - | - | - |
| 1777429879 | 11.11° C | 80% | 1011.7 hPa | 0 mm | - | - | - |
| 1777428679 | 11.11° C | 80% | 1011.9 hPa | 0 mm | - | - | - |
| 1777427479 | 11.11° C | 80% | 1012 hPa | 0 mm | - | - | - |
| 1777426279 | 11.11° C | 81% | 1012 hPa | 0 mm | - | - | - |
| 1777425080 | 11.11° C | 81% | 1012.1 hPa | 0 mm | - | - | - |
| 1777423880 | 11.11° C | 81% | 1012.2 hPa | 0 mm | - | - | - |
| 1777422680 | 11.11° C | 80% | 1012.3 hPa | 0 mm | - | - | - |
* Rain latest hour (hover to see other rain measurements)
** Current wind speed in m/s (hover to see current wind gust speed)